Regional Weather Roundup
Issued by NWS

Home | Current Version | Previous Version | Text Only | Print | Product List | Glossary Off
Versions: 1 2 3 4 5 6 7 8 9 10 11 12 13 14 15 16 17 18 19 20 21 22 23 24 25 26 27 28 29 30 31 32 33 34 35 36 37 38 39 40 41 42 43 44 45 46 47 48 49 50

350
ASUS43 KOAX 260802
RWRNE

WEATHER ROUNDUP FOR NEBRASKA
NATIONAL WEATHER SERVICE OMAHA NE
300 AM CDT TUE SEP 26 2017

NOTES: SATELLITE DATA IS BEING USED TO AUGMENT CLOUD COVER ABOVE
       12000 FEET.
       "FAIR" INDICATES FEW OR NO CLOUDS BELOW 12,000 FEET WITH NO
       SIGNIFICANT WEATHER AND/OR OBSTRUCTIONS TO VISIBILITY.


NEZ001>004-019>022-054>056-260900-
NEBRASKA PANHANDLE

CITY           SKY/WX    TMP DP  RH WIND       PRES   REMARKS
SCOTTSBLUFF    CLEAR     41  39  93 E8        30.14F
ALLIANCE       CLOUDY    39  38  96 CALM      30.15S
CHADRON        LGT RAIN  46  42  86 N3        30.15R
GORDON         FAIR      38  37  95 SW6       30.14S WCI  34
KIMBALL        CLEAR     37  37 100 S5        30.16S WCI  34
SIDNEY         CLEAR     33  32  96 SW7       30.17R WCI  27
$$

NEZ057>060-069>072-079>082-260900-
SOUTHWEST NEBRASKA

CITY           SKY/WX    TMP DP  RH WIND       PRES   REMARKS
NORTH PLATTE   CLOUDY    48  46  93 NW5       30.13F
IMPERIAL       CLOUDY    47  44  90 N7        30.15S
LEXINGTON      MOCLDY    47  46  93 NW3       30.11S
MCCOOK         CLOUDY    47  46  97 NW7       30.13S
OGALLALA       CLOUDY    49  45  85 CALM      30.15S
$$

NEZ005>010-023>029-035>040-094-260900-
NORTH CENTRAL NEBRASKA

CITY           SKY/WX    TMP DP  RH WIND       PRES   REMARKS
VALENTINE      CLOUDY    48  46  93 W3        30.13R
AINSWORTH      CLEAR     44  44 100 W5        30.11F
BROKEN BOW     MOCLDY    49  46  90 NW8       30.11R
O`NEILL        LGT RAIN  49  49 100 NW10      30.09F
ORD            CLOUDY    50  46  86 NW12      30.07F
THEDFORD       CLOUDY    46  45  96 CALM      30.14F
$$

NEZ041-046>049-061>064-073>077-083>087-260900-
SOUTH CENTRAL NEBRASKA

CITY           SKY/WX    TMP DP  RH WIND       PRES   REMARKS
GRAND ISLAND   CLOUDY    50  50 100 NW14      30.07R
AURORA         CLOUDY    50  50 100 NW9       30.05S
HASTINGS       CLOUDY    50  48  93 NW13      30.08R
HEBRON         CLOUDY    54  53  97 N8        30.03F
HOLDREGE       CLOUDY    48  47  93 N6        30.09F
KEARNEY        CLOUDY    49  47  93 NW9       30.10R
YORK           CLOUDY    50  50 100 N6        30.04F
$$

NEZ011>018-030>034-042>045-260900-
NORTHEAST NEBRASKA

CITY           SKY/WX    TMP DP  RH WIND       PRES   REMARKS
NORFOLK        CLOUDY    51  51 100 NW10      30.04S
ALBION         CLOUDY    51  50  96 NW10      30.06F
BLAIR          CLOUDY    56  56  97 NW9       29.98S FOG
COLUMBUS       LGT RAIN  52  51  97 NW9       30.04F
FREMONT        CLOUDY    55  54  97 NW14      30.01S
TEKAMAH        CLOUDY    56  54  93 NW9       29.99R
WAYNE          LGT RAIN  52  50  91 N8        30.03S
$$

NEZ050>053-065>068-078-088>093-260900-
SOUTHEAST NEBRASKA

CITY           SKY/WX    TMP DP  RH WIND       PRES   REMARKS
LINCOLN        CLOUDY    56  54  93 NW13      30.02S
OMAHA EPPLEY   CLOUDY    59  55  87 NW13      29.97S
BEATRICE       CLOUDY    56  56  97 N12       30.01S FOG
FALLS CITY     CLOUDY    66  65  96 NW7       29.95R
NEBRASKA CITY  CLOUDY    59  59 100 NW10      29.98S
PLATTSMOUTH    CLOUDY    58  58 100 W9        29.99R
$$

NEZ044-045-051>053-067-260900-
OMAHA AREA

CITY           SKY/WX    TMP DP  RH WIND       PRES   REMARKS
OMAHA EPPLEY   CLOUDY    59  55  87 NW13      29.97S
BLAIR          CLOUDY    56  56  97 NW9       29.98S FOG
FREMONT        CLOUDY    55  54  97 NW14      30.01S
MILLARD        CLOUDY    58  57  94 NW10      29.99R
OFFUTT AFB     CLOUDY    58  56  92 W9        29.97S
PLATTSMOUTH    CLOUDY    58  58 100 W9        29.99R
WAHOO          CLOUDY    55  54  97 NW10G20   30.01R
$$




USA.gov is the U.S. government's official web portal to all federal, state and local government web resources and services.